User: anonymous   Login
Location: Unspecified
(0.0000°N, 0.0000°E)
Time: 12:06:14
(UTC+00:00)
Language:

IBEX - Orbit

View from above orbital plane
View from above orbital plane
View from above satellite
View from above satellite

Ground track
Ground track

The orbit data is extracted from the following two-line orbital elements,

1 33401U 08051A   16271.58291533 -.00003239  00000-0  00000+0 0  9995
2 33401  49.3750  18.6560 5498930 183.4913 358.1914  0.12047939  3351
Epoch (UTC): 27 September 2016 13:59:23
Eccentricity: 0.5498930
inclination: 49.3750°
perigee height: 71564 km
apogee height: 262006 km
right ascension of ascending node: 18.6560°
argument of perigee: 183.4913°
revolutions per day: 0.12047939
mean anomaly at epoch: 358.1914°
orbit number at epoch: 335

The dashed part of the orbit path shows where the satellite is in the earth's shadow,  

DLR